Weather History for KPVU - August, 2014

Change the Weather History Date:

Friday, August 8, 2014

  Actual Average Record
Temperature  
Mean Temperature 70 °F -  
Max Temperature 84 °F 88 °F 98 °F (1990)
Min Temperature 57 °F 58 °F 50 °F (1996)
Cooling Degree Days 6    
Growing Degree Days 20 (Base 50)    
Moisture  
Dew Point 52 °F    
Average Humidity 61    
Maximum Humidity 88    
Minimum Humidity 25    
Precipitation  
Precipitation 0.00 in - - ()
Sea Level Pressure  
Sea Level Pressure 30.11 in    
Wind  
Wind Speed 4 mph (ESE)    
Max Wind Speed 16 mph    
Max Gust Speed -    
Visibility 12 miles    
Events      
Averages and records for this station are not official NWS values.
T = Trace of Precipitation, MM = Missing Value Source: NWS Daily Summary

Daily Weather History Graph

Daily Weather History Graph

Search for Another Location

Airport or City:

Trip Planner

Search our weather history database for the weather conditions in past years. The results will help you decide how hot, cold, wet, or windy it might be!

Date:

Astronomy

Aug. 08, 2014 Rise Set
Actual Time 6:31 AM MDT 8:32 PM MDT
Civil Twilight 6:01 AM MDT 9:02 PM MDT
Nautical Twilight 5:25 AM MDT 9:38 PM MDT
Astronomical Twilight 4:45 AM MDT 10:18 PM MDT
Moon 6:47 PM MDT (8/8) 4:07 AM MDT (8/8)
Length of Visible Light 15h 00m
Length of Day
14h 01m
Waxing Gibbous, 94% of the Moon is Illuminated
Aug 8
Waxing Gibbous
Aug 10
Full
Aug 17
Last Quarter
Aug 25
New
Sep 2
First Quarter

Hourly Weather History & Observations

Time (MDT) Temp. Dew Point Humidity Pressure Visibility Wind Dir Wind Speed Gust Speed Precip Events Conditions
12:15 AM 64.4 °F 53.6 °F 68% 30.09 in 10.0 mi East 4.6 mph - N/A   Clear
12:35 AM 64.4 °F 55.4 °F 73% 30.10 in 10.0 mi ENE 3.5 mph - N/A   Clear
12:55 AM 62.6 °F 53.6 °F 72% 30.11 in 10.0 mi East 3.5 mph - N/A   Clear
1:15 AM 62.6 °F 55.4 °F 77% 30.11 in 10.0 mi ESE 3.5 mph - N/A   Clear
1:35 AM 60.8 °F 55.4 °F 82% 30.11 in 9.0 mi Calm Calm - N/A   Clear
1:55 AM 62.6 °F 55.4 °F 77% 30.11 in 10.0 mi SE 3.5 mph - N/A   Clear
2:15 AM 62.6 °F 53.6 °F 72% 30.11 in 10.0 mi Calm Calm - N/A   Clear
2:35 AM 60.8 °F 53.6 °F 77% 30.11 in 10.0 mi SE 4.6 mph - N/A   Clear
2:55 AM 59.0 °F 53.6 °F 82% 30.11 in 10.0 mi ESE 5.8 mph - N/A   Clear
3:15 AM 59.0 °F 53.6 °F 82% 30.11 in 10.0 mi ESE 4.6 mph - N/A   Clear
3:35 AM 60.8 °F 51.8 °F 72% 30.11 in 10.0 mi SE 3.5 mph - N/A   Clear
3:55 AM 60.8 °F 51.8 °F 72% 30.11 in 10.0 mi SE 3.5 mph - N/A   Clear
4:15 AM 60.8 °F 51.8 °F 72% 30.11 in 10.0 mi SE 3.5 mph - N/A   Clear
4:35 AM 59.0 °F 51.8 °F 77% 30.12 in 10.0 mi Calm Calm - N/A   Clear
4:55 AM 59.0 °F 53.6 °F 82% 30.12 in 10.0 mi Calm Calm - N/A   Clear
5:15 AM 57.2 °F 53.6 °F 88% 30.12 in 10.0 mi Calm Calm - N/A   Clear
5:35 AM 57.2 °F 51.8 °F 82% 30.12 in 10.0 mi Calm Calm - N/A   Clear
5:55 AM 57.2 °F 51.8 °F 82% 30.12 in 10.0 mi SSE 8.1 mph - N/A   Clear
6:15 AM 57.2 °F 51.8 °F 82% 30.12 in 7.0 mi SE 5.8 mph - N/A   Clear
6:35 AM 59.0 °F 51.8 °F 77% 30.13 in 10.0 mi SE 8.1 mph - N/A   Clear
6:49 AM 57.2 °F 51.8 °F 82% 30.14 in 15.0 mi East 5.8 mph - N/A   Partly Cloudy
7:51 AM 60.8 °F 51.8 °F 72% 30.15 in 15.0 mi East 5.8 mph - N/A   Partly Cloudy
8:53 AM 66.2 °F 51.8 °F 60% 30.16 in 15.0 mi Calm Calm - N/A   Clear
9:53 AM 69.8 °F 53.6 °F 56% 30.16 in 15.0 mi Calm Calm - N/A   Partly Cloudy
10:52 AM 73.4 °F 50.0 °F 44% 30.16 in 15.0 mi Calm Calm - N/A   Partly Cloudy
11:53 AM 77.0 °F 51.8 °F 41% 30.15 in 15.0 mi Calm Calm - N/A   Partly Cloudy
12:51 PM 78.8 °F 46.4 °F 32% 30.14 in 15.0 mi Calm Calm - N/A   Partly Cloudy
1:47 PM 82.4 °F 48.2 °F 30% 30.12 in 15.0 mi Calm Calm - N/A   Mostly Cloudy
2:47 PM 82.4 °F 48.2 °F 30% 30.10 in 15.0 mi Variable 3.5 mph - N/A   Mostly Cloudy
3:50 PM 84.2 °F 46.4 °F 27% 30.08 in 15.0 mi West 8.1 mph - N/A   Mostly Cloudy
4:55 PM 84.2 °F 46.4 °F 27% 30.06 in 15.0 mi West 4.6 mph - N/A   Mostly Cloudy
5:50 PM 84.2 °F 44.6 °F 25% 30.06 in 15.0 mi NW 5.8 mph - N/A   Mostly Cloudy
6:52 PM 82.4 °F 44.6 °F 26% 30.05 in 15.0 mi Variable 4.6 mph - N/A   Clear
7:52 PM 78.8 °F 48.2 °F 34% 30.06 in 15.0 mi Variable 4.6 mph - N/A   Clear
8:53 PM 75.2 °F 53.6 °F 47% 30.06 in 15.0 mi Calm Calm - N/A   Clear
9:15 PM 73.4 °F 60.8 °F 65% 30.07 in 8.0 mi SSW 6.9 mph - N/A   Clear
9:35 PM 71.6 °F 57.2 °F 60% 30.08 in 10.0 mi Calm Calm - N/A   Clear
9:55 PM 69.8 °F 53.6 °F 56% 30.09 in 10.0 mi East 5.8 mph - N/A   Clear
10:15 PM 69.8 °F 51.8 °F 53% 30.10 in 10.0 mi Calm Calm - N/A   Clear
10:35 PM 71.6 °F 51.8 °F 50% 30.10 in 5.0 mi Calm Calm - N/A   Scattered Clouds
11:15 PM 69.8 °F 55.4 °F 60% 30.12 in 10.0 mi NW 16.1 mph - N/A   Mostly Cloudy
11:35 PM 73.4 °F 51.8 °F 47% 30.12 in 10.0 mi NNW 16.1 mph - N/A   Partly Cloudy
11:55 PM 71.6 °F 48.2 °F 43% 30.12 in 10.0 mi North 5.8 mph - N/A   Clear